Regional Weather Roundup
Issued by NWS

Home | Current Version | Previous Version | Graphics & Text | Print | Product List | Glossary On
Versions: 1 2 3 4 5 6 7 8 9 10 11 12 13 14 15 16 17 18 19 20 21 22 23 24 25 26 27 28 29 30 31 32 33 34 35 36 37 38 39 40 41 42 43 44 45 46 47 48 49 50
000
ASUS43 KFSD 260910
RWRSD

WEATHER ROUNDUP FOR SOUTH DAKOTA
NATIONAL WEATHER SERVICE SIOUX FALLS SD
300 AM CST WED NOV 26 2014

NOTE: "FAIR" INDICATES FEW OR NO CLOUDS BELOW 12,000 FEET WITH NO
SIGNIFICANT WEATHER AND/OR OBSTRUCTIONS TO VISIBILITY.


SDZ001>005-009-010-012>017-261000-
NORTHWEST AND NORTH CENTRAL SOUTH DAKOTA

CITY           SKY/WX    TMP DP  RH WIND       PRES   REMARKS
BUFFALO          N/A     25  20  81 NW9       30.10R WCI  15
FAITH            N/A     22  17  81 N18       30.14R WCI   7
MOBRIDGE       CLOUDY    19  14  81 N17G30    30.14R WCI   4
$$

SDZ012>016-024>037-041>051-057-063-072>074-261000-
SOUTHWEST AND SOUTH CENTRAL SOUTH DAKOTA

CITY           SKY/WX    TMP DP  RH WIND       PRES   REMARKS
RAPID CTY ARPT CLOUDY    25  20  81 N24       30.14R WCI   9
PIERRE         CLOUDY    23  19  85 N30G43    30.07R WCI   5
CUSTER         CLOUDY    23  14  68 NW7       30.04R WCI  15
ELLSWORTH AFB  CLOUDY    25  20  82 N20       30.14  WCI  11
PHILIP         CLOUDY    26  20  77 N22G29    30.13R WCI  12
PINE RIDGE     CLOUDY    28  21  75 N18G25    30.12R WCI  15
SPEARFISH      CLOUDY    25  21  86 N8        30.16R WCI  16
WINNER         CLOUDY    28  24  85 NW30G40   30.00R WCI  12
$$

SDZ004>011-016>023-039-040-261000-
NORTHEAST SOUTH DAKOTA

CITY           SKY/WX    TMP DP  RH WIND       PRES   REMARKS
ABERDEEN       LGT SNOW  18  14  84 N26G32    30.08R FOG     WCI  -1
WATERTOWN      LGT SNOW  22  19  89 NE21G26   29.93R FOG     WCI   6
SISSETON         N/A     21  20  96 N17       30.06R WCI   7
$$

SDZ017-020-022-023-036>040-048>070-261000-
SOUTHEAST SOUTH DAKOTA

CITY           SKY/WX    TMP DP  RH WIND       PRES   REMARKS
SIOUX FALLS    LGT SNOW  30  28  92 NE6       29.84R FOG     WCI  24
HURON          CLOUDY    30  28  92 N18       29.92R WCI  18
CHAMBERLAIN    CLOUDY    29  28  94 NW18G24   29.95R WCI  17
MITCHELL       CLOUDY    35  32  88 NW20      29.89R WCI  24
YANKTON        CLOUDY    36  32  87 NW17      29.86R
$$

ABBREVIATIONS USED IN REMARKS
   TC - TEMPERATURE IN CELSIUS
  WCI - WIND CHILL INDEX
   HX - HEAT INDEX
  VSB - VISIBILITY



USA.gov is the U.S. government's official web portal to all federal, state and local government web resources and services.